Regional Weather Roundup
Issued by NWS

Home | Current Version | Previous Version | Graphics & Text | Print | Product List | Glossary Off
Versions: 1 2 3 4 5 6 7 8 9 10 11 12 13 14 15 16 17 18 19 20 21 22 23 24 25 26 27 28 29 30 31 32 33 34 35 36 37 38 39 40 41 42 43 44 45 46 47 48 49 50

000
ASUS43 KMPX 231701
RWRMN
WEATHER ROUNDUP FOR MINNESOTA
NATIONAL WEATHER SERVICE TWIN CITIES/CHANHASSEN MN
1200 PM CDT FRI JUN 23 2017


NOTE: "FAIR" INDICATES FEW OR NO CLOUDS BELOW 12,000 FEET WITH NO
SIGNIFICANT WEATHER AND/OR OBSTRUCTIONS TO VISIBILITY. N/A MEANS
CURRENT SKY AND/OR WEATHER CONDITIONS ARE NOT AVAILABLE.

MNZ060>063-068>070-231800-
   Twin Cities Metro

CITY           SKY/WX    TMP DP  RH WIND       PRES   REMARKS
TWIN CITIES    PTSUNNY   69  53  56 NW17G24   29.80R
ST PAUL        PTSUNNY   67  54  63 W16G23    29.80R
CRYSTAL        MOSUNNY   69  50  50 NW17G26   29.78S
BLAINE         PTSUNNY   70  54  56 NW12      29.79R
LAKEVILLE      CLOUDY    64  55  72 W9        29.81S
EDEN PRAIRIE   CLOUDY    68  53  58 NW14G24   29.80S
SOUTH ST PAUL  CLOUDY    66  51  59 NW12G21   29.80R
LAKE ELMO      CLOUDY    66  54  63 NW13      29.80S
$$
MNZ001>005-007-008-013>017-022>024-027-028-231800-
   Northwest Minnesota

CITY           SKY/WX    TMP DP  RH WIND       PRES   REMARKS
BEMIDJI        LGT RAIN  57  55  93 NW17      29.80R
HALLOCK        CLOUDY    59  50  72 NW22G29   29.85R
ROSEAU         LGT RAIN  61  54  77 NW14      29.79R
WARROAD        CLOUDY    61  55  82 NW16G24   29.77R
CROOKSTON      CLOUDY    59  54  82 NW18G24   29.87R
FOSSTON        CLOUDY    61  52  72 NW17G25   29.84R
DETROIT LAKES  CLOUDY    55  54  94 NW20G26   29.88R FOG
MOORHEAD       CLOUDY    61  50  67 NW15      29.90R
PARK RAPIDS    CLOUDY    64  49  57 NW21G26   29.81R
MAHNOMEN       CLOUDY    60  53  77 NW20G30   29.85R
$$
MNZ006-009>011-018-025>026-231800-
   North Central Minnesota

CITY           SKY/WX    TMP DP  RH WIND       PRES   REMARKS
BAUDETTE       CLOUDY    65  53  65 NW20      29.73R
FLAG ISLAND    LGT RAIN  57  55  94 NW14      29.73R
INTL FALLS     PTSUNNY   67  50  54 NW14G25   29.70R
WASKISH        CLOUDY    63  52  67 NW12G17   29.75S
BIG FORK       MOSUNNY   64  52  63 NW6       29.73S
LONGVILLE      CLOUDY    61  52  72 NW10G21   29.79R
GRAND RAPIDS   CLOUDY    61  51  70 NW15G23   29.76S
CRANE LAKE     CLOUDY    61  52  72 N12       29.70S
ORR            CLOUDY    61  46  59 NW8G17    29.68S
COOK           PTSUNNY   61  48  63 W9G16     29.71R
WALKER         CLOUDY    58  55  89 NW14      29.80R
$$
MNZ012-019>021-037-231800-
   Northeast Minnesota

CITY           SKY/WX    TMP DP  RH WIND       PRES   REMARKS
DULUTH         PTSUNNY   64  50  60 NW10G22   29.70R
ELY            MOSUNNY   61  52  72 W15       29.67S
HIBBING        PTSUNNY   62  47  57 NW15G25   29.71S
EVELETH        SUNNY     60  44  55 NW12G21   29.72R
DULUTH HARBOR  CLOUDY    66  52  59 NW18      29.70S
TWO HARBORS    PTSUNNY   66  52  59 W10G17    29.66F
SILVER BAY     PTSUNNY   66  50  55 W9        29.65S
GRAND MARAIS     N/A     51  45  79 SW5       29.61S
G MARAIS ARPRT PTSUNNY   61  46  59 W9        29.64S
$$
MNZ029>031-032-039>041-046>048-054>057-064-231800-
   West Central Minnesota

CITY           SKY/WX    TMP DP  RH WIND       PRES   REMARKS
FERGUS FALLS   CLOUDY    61  54  77 NW23      29.87R
WHEATON        PTSUNNY   64  48  55 W18G29    29.93R
MORRIS         CLOUDY    64  52  63 NW22G31   29.89R
ALEXANDRIA     CLOUDY    63  55  75 NW17      29.87S
ELBOW LAKE     CLOUDY    60  55  81 NW20G30   29.89S
WADENA         PTSUNNY   63  54  72 W14G25    29.83R
GLENWOOD       SUNNY     64  55  72 NW23      29.87S
APPLETON       CLOUDY    64  52  63 NW24G31   29.91R
BENSON         CLOUDY    64  54  68 NW18G25   29.91R
ORTONVILLE     CLOUDY    63  48  59 NW21G31   29.93R
MADISON        CLOUDY    64  55  72 W18G28    29.93R
WILLMAR        FAIR      66  55  68 NW20G26   29.88R
$$
MNZ033>034-036-042>043-049>051-058-059-231800-
   Central Minnesota

CITY           SKY/WX    TMP DP  RH WIND       PRES   REMARKS
ST CLOUD       PTSUNNY   69  50  50 NW14G26   29.80S
SAUK CENTRE    CLOUDY    65  51  60 NW20G25   29.85S
PAYNESVILLE    CLOUDY    66  52  61 NW17G25   29.85S
AITKIN         MOSUNNY   63  52  67 W6G17     29.77R
PINE RIVER     CLOUDY    63  52  67 NW14G23   29.83R
BRAINERD       CLOUDY    64  50  60 NW17G28   29.81R
STAPLES        PTSUNNY   66  48  52 NW13      29.82R
LONG PRAIRIE   CLOUDY    61  52  72 W13       29.86R
LITTLE FALLS   CLOUDY    68  46  45 W16G23    29.82R
LITCHFIELD     CLOUDY    64  55  72 NW16G24   29.85R
BUFFALO        PTSUNNY   66  51  57 W16G23    29.82S
MAPLE LAKE     PTSUNNY   66  54  66 W10G17    29.83R
HUTCHINSON     PTSUNNY   67  54  64 NW15G21   29.85S
$$
MNZ037-044-045-052-053-231800-
   East Central Minnesota

CITY           SKY/WX    TMP DP  RH WIND       PRES   REMARKS
PRINCETON      PTSUNNY   70  52  52 NW12G21   29.80S
MORA           PTSUNNY   64  50  59 NW14G23   29.80R
CAMBRIDGE      MOSUNNY   72  54  53 NW14G20   29.76F
RUSH CITY      CLOUDY    66  50  55 NW7G20    29.78S
MOOSE LAKE     PTSUNNY   64  50  59 NW13      29.74R
HINCKLEY       CLOUDY    64  50  59 NW13G20   29.77R
CLOQUET        CLOUDY    63  46  55 W15G24    29.73R
MCGREGOR       CLOUDY    61  52  72 W9        29.78R
$$
MNZ071>073-080-081-089-090-097-098-231800-
   Southwest Minnesota

CITY           SKY/WX    TMP DP  RH WIND       PRES   REMARKS
MONTEVIDEO     CLOUDY    66  54  63 NW18G29   29.90R
GRANITE FALLS  CLOUDY    66  54  64 W20G29    29.93R
CANBY          CLOUDY    65  54  67 NW22G31   29.96R
MARSHALL       CLOUDY    63  53  70 NW22      29.93R
REDWOOD FALLS  CLOUDY    64  53  67 NW13G26   29.89R
OLIVIA         CLOUDY    64  54  68 NW20G26   29.87R
PIPESTONE      CLOUDY    61  50  67 NW17      29.98R
WINDOM         CLOUDY    64  52  63 W21G28    29.92S
WORTHINGTON    LGT RAIN  61  52  72 NW23G29   29.98R
JACKSON        CLOUDY    63  52  67 NW17G26   29.94R
TRACY          CLOUDY    65  54  68 NW24G30   29.94R
SLAYTON        CLOUDY    61  52  72 W21G28    29.95R
$$
MNZ065>067-074>077-082>085-091>093-231800-
   South Central Minnesota

CITY           SKY/WX    TMP DP  RH WIND       PRES   REMARKS
MANKATO        CLOUDY    66  55  67 NW18      29.86R
NEW ULM        CLOUDY    63  55  77 NW14      29.88R
ST JAMES       CLOUDY    64  54  68 W16       29.90R
FAIRMONT       CLOUDY    65  54  67 NW17      29.90R
GLENCOE        PTSUNNY   67  56  67 NW17G25   29.83S
FARIBAULT      CLOUDY    66  55  68 W15G22    29.83R
OWATONNA       PTSUNNY   66  55  68 W18       29.83S
WASECA         PTSUNNY   66  54  63 W20G25    29.86R
ALBERT LEA     PTSUNNY   66  52  59 NW12G17   29.85R
$$
MNZ078>079-086>088-094>096-231800-
   Southeast Minnesota

CITY           SKY/WX    TMP DP  RH WIND       PRES   REMARKS
ROCHESTER      PTSUNNY   67  54  63 NW18G28   29.83R
RED WING       PTSUNNY   70  50  49 NW13G21   29.78R
STANTON        CLOUDY    66  54  66 W14G20    29.80S
DODGE CENTER   MOSUNNY   66  52  59 NW18G28   29.83R
WINONA         MOSUNNY   70  54  56 NW14G22   29.77R
AUSTIN         MOSUNNY   66  52  59 NW18G25   29.83S
PRESTON        MOSUNNY   65  53  63 NW18      29.81S
$$
ABBREVIATIONS USED IN REMARKS
   TC - TEMPERATURES IN CELSIUS
  WCI - WIND CHILL INDEX
   HX - HEAT INDEX
  VSB - VISIBILITY
$$




USA.gov is the U.S. government's official web portal to all federal, state and local government web resources and services.